Theta_e
311 311 310 310 309 310 312 311 313 315 314 315 316 316 317 317 317 319 339 340 341 342 342 341 341 339 337 336 335 334 333 334 334 334 334 333 331 331 330 329 329 330 331 331
312 311 310 310 310 309 309 310 311 312 312 313 314 314 314 315 316 319 322 340 341 341 340 339 339 337 335 332 330 330 331 332 333 332 332 332 332 331 329 330 331 331 331 331
314 311 310 311 310 310 310 310 311 313 313 312 313 313 314 316 317 318 320 340 340 342 340 338 337 335 331 329 330 331 332 332 332 332 332 331 330 330 329 331 331 331 331 330
315 311 315 310 309 312 313 312 311 312 312 312 312 313 313 314 316 318 320 339 339 341 341 338 336 333 329 331 331 332 331 332 332 331 330 330 327 328 331 330 331 331 331 332
315 316 311 310 310 311 314 315 315 315 316 315 315 313 313 314 316 318 322 338 342 340 339 337 335 329 331 331 331 331 332 332 331 329 329 329 327 330 331 331 332 331 331 332
314 315 314 317 317 316 316 320 317 317 317 317 316 315 314 318 327 329 333 340 341 339 338 337 333 330 331 331 332 332 332 331 330 328 327 327 328 329 330 331 331 330 331 332
315 317 314 315 314 314 318 322 321 321 322 317 317 315 316 318 332 334 337 340 340 338 338 336 332 331 332 332 332 333 331 330 330 329 329 329 330 330 329 330 330 331 332 332
316 317 318 311 310 316 315 318 318 319 320 321 322 320 319 320 327 335 338 340 340 338 337 336 332 330 332 333 333 330 330 330 331 331 330 330 330 330 330 330 331 332 332 331
313 315 310 308 305 307 311 315 315 316 317 320 326 324 323 324 332 336 338 340 339 337 336 334 330 329 332 333 332 331 330 331 331 331 330 331 332 332 332 332 332 332 332 331
311 313 309 309 313 310 307 311 311 310 314 323 328 327 329 331 334 337 339 340 337 335 334 332 329 331 332 333 331 332 331 331 333 332 332 332 332 332 333 333 332 332 332 331
314 314 312 312 312 313 313 311 313 318 323 326 329 330 331 333 335 337 339 338 334 332 330 329 329 331 332 332 331 332 332 333 333 333 332 332 332 332 333 333 332 332 332 331
315 315 312 313 311 311 313 313 313 314 319 323 326 328 329 331 335 337 339 338 337 333 328 327 329 330 331 331 332 332 332 331 331 332 332 331 331 330 329 328 329 330 330 329
314 312 312 310 308 307 309 311 311 312 313 321 323 325 325 327 329 329 333 332 334 337 334 329 328 329 330 330 331 331 330 331 330 331 331 329 332 332 331 327 328 328 327 327
311 311 311 310 307 307 308 309 310 310 311 314 318 319 320 322 323 325 324 323 325 330 332 334 332 330 329 329 330 331 331 331 329 329 331 329 328 331 331 332 331 329 326 324
309 311 310 309 306 306 308 310 310 309 310 310 311 314 316 317 319 320 320 320 320 321 325 326 326 325 327 329 329 330 331 329 330 329 330 330 327 329 330 330 332 331 325 325
309 308 308 308 306 306 308 309 311 308 307 308 309 310 311 310 311 313 313 316 317 318 319 322 323 322 323 328 329 330 331 330 331 330 331 331 329 326 329 329 330 332 331 328
311 309 309 308 305 305 306 307 308 306 306 306 306 305 307 308 308 309 309 309 308 309 310 313 317 320 320 325 330 327 328 330 330 331 330 331 330 329 326 326 327 328 331 330
310 308 308 306 305 305 305 306 305 305 305 306 304 305 305 305 305 306 306 307 305 306 304 306 308 317 319 319 325 328 328 328 328 328 329 330 331 331 330 328 327 326 328 329
309 308 307 305 303 304 305 305 305 305 303 303 303 303 304 304 303 302 300 300 302 300 300 302 307 314 317 321 323 328 328 329 329 328 329 330 331 331 331 331 330 328 328 328
310 308 306 304 303 303 304 303 302 303 303 302 303 302 301 301 302 302 299 296 295 296 297 300 305 310 311 315 322 327 328 328 329 330 330 331 331 332 332 331 332 332 331 329
310 309 306 304 303 303 303 302 301 301 302 302 300 300 299 298 298 298 299 296 293 295 297 299 301 307 307 311 315 317 316 316 317 318 319 322 326 327 328 329 329 330 331 332
310 310 308 304 303 303 302 302 301 301 301 301 300 300 300 300 298 295 294 294 292 294 296 297 298 302 305 307 308 309 308 306 306 307 308 309 309 309 310 310 309 310 312 313
311 309 308 306 304 303 302 302 301 300 300 300 299 297 297 296 296 298 296 292 291 292 294 294 297 299 302 304 303 303 302 301 300 300 301 302 302 302 301 301 301 301 301 301
311 310 309 306 304 303 304 302 301 300 299 298 299 299 299 297 295 293 293 292 292 293 293 293 294 295 297 298 297 297 297 297 297 297 297 298 298 298 297 297 297 296 296 296
311 310 309 308 307 305 303 302 302 301 300 299 298 298 298 297 297 295 294 293 294 295 295 295 294 294 294 294 294 294 293 293 294 295 295 295 295 295 296 295 295 295 295 294
312 311 310 310 308 305 304 303 302 302 301 301 299 298 298 297 296 296 295 296 296 296 295 296 297 296 296 295 294 295 296 296 295 295 295 295 295 295 295 295 295 295 295 294
312 311 311 310 308 306 305 304 303 302 301 300 299 298 298 297 296 296 296 296 296 295 295 295 294 295 295 295 295 295 294 293 295 295 295 295 295 295 295 295 294 294 294 294
Wind_Speed
18 21 18 18 17 16 17 18 18 19 21 20 17 15 16 17 18 16 9 2 3 6 7 13 17 20 21 21 20 19 19 18 16 16 15 16 16 15 14 13 12 10 8 5
19 19 20 21 20 19 20 20 18 23 27 22 20 19 20 18 15 14 11 4 5 9 11 13 17 20 20 20 19 18 19 18 16 15 15 15 14 15 14 13 11 11 7 5
15 15 14 16 20 21 22 21 21 22 25 21 20 19 18 16 16 13 11 8 9 12 13 14 19 20 20 20 20 19 18 16 15 14 15 15 13 14 15 11 11 10 7 5
6 7 10 14 5 8 11 14 19 24 22 22 21 19 17 16 18 16 11 10 11 12 13 17 21 21 20 20 19 18 16 14 12 13 15 14 14 16 12 10 11 9 6 5
5 9 15 19 14 15 11 14 15 21 21 20 17 16 17 16 18 19 14 9 14 19 22 22 22 21 21 20 18 16 14 13 12 14 14 14 15 14 10 10 8 8 6 4
4 5 5 6 5 4 4 15 12 17 17 14 12 12 9 7 10 9 8 11 13 21 24 23 22 22 21 18 16 14 13 13 13 15 15 15 16 13 10 9 8 7 6 6
11 7 6 5 2 5 8 2 6 10 13 9 11 10 11 10 11 5 4 13 20 22 22 23 23 22 19 17 13 13 13 15 14 13 13 13 11 10 10 10 9 8 7 7
6 6 5 7 9 10 9 7 9 11 10 11 12 13 14 15 11 6 7 13 20 19 22 23 23 22 19 16 13 15 15 16 15 13 12 11 10 10 11 10 10 9 8 8
3 3 8 14 19 25 23 18 16 13 14 15 14 13 13 11 12 6 8 12 20 21 23 22 22 22 19 16 17 17 17 16 14 12 10 9 8 9 11 11 10 10 9 10
4 5 12 13 12 6 14 18 14 15 17 16 11 8 11 5 6 6 11 14 19 21 19 21 22 22 21 18 18 17 16 14 12 11 9 7 7 7 7 9 8 9 7 10
7 9 11 11 17 16 4 3 5 9 6 5 4 2 1 3 1 5 13 17 21 19 20 22 23 22 20 18 20 17 17 13 12 10 8 8 6 6 5 6 2 4 8 9
8 13 7 9 14 18 14 13 11 10 8 6 6 7 4 4 5 8 9 12 16 20 21 24 24 21 19 18 18 18 16 15 11 11 9 8 9 9 7 8 8 8 7 6
9 10 11 14 14 15 14 12 12 10 9 7 10 7 8 10 10 14 15 14 10 7 19 23 23 20 19 19 19 18 15 14 12 9 9 8 9 11 11 7 9 10 9 10
12 12 10 14 11 13 13 10 9 9 11 10 10 13 12 12 15 14 14 18 22 12 11 14 16 15 17 19 19 17 14 13 12 10 10 10 8 10 12 12 10 9 10 9
10 7 9 10 13 11 6 6 9 11 12 13 17 13 14 15 14 16 19 18 24 16 14 15 15 9 4 14 16 15 13 13 9 9 8 9 8 7 8 11 14 13 11 11
9 12 10 13 14 12 12 11 11 12 13 12 13 15 18 20 20 20 21 16 19 13 14 13 16 10 6 5 14 13 9 8 6 9 11 10 9 9 8 8 9 13 13 14
11 12 12 15 14 14 15 12 12 11 11 14 14 17 18 18 18 18 18 16 19 21 18 17 16 13 9 6 5 14 13 10 8 8 9 9 9 8 8 9 8 10 11 14
10 9 10 10 11 12 13 14 12 13 12 14 17 18 18 14 11 12 12 13 21 25 22 20 19 14 12 8 4 3 7 11 11 11 9 8 7 8 8 8 8 9 10 13
9 11 9 9 11 12 13 13 14 14 15 16 16 16 15 15 14 14 15 17 21 17 21 20 21 16 14 14 9 5 4 7 8 8 8 7 8 7 8 7 7 7 9 12
9 10 11 13 14 13 12 16 15 15 15 17 16 16 16 16 15 16 17 22 18 16 15 24 17 16 16 18 17 13 11 9 5 2 4 8 7 6 5 2 1 7 8 6
7 8 9 11 13 14 16 15 14 15 15 15 16 18 17 17 19 18 17 14 25 24 23 18 16 14 17 17 17 17 20 22 19 18 18 18 16 16 14 12 11 9 6 2
6 7 8 10 12 14 15 15 15 15 17 17 17 16 13 15 17 22 23 20 18 21 18 17 18 21 17 17 18 21 21 28 25 23 24 24 23 23 25 24 22 20 20 19
7 9 8 8 10 11 13 15 16 16 17 17 18 17 18 18 18 14 12 19 19 21 20 22 23 23 21 20 21 22 25 28 28 26 25 26 25 25 28 27 27 26 26 25
10 10 11 9 8 8 9 11 14 16 17 17 16 15 14 15 17 15 15 16 25 31 29 27 30 29 25 24 24 24 25 26 25 23 24 27 25 25 27 29 30 28 26 27
13 12 12 11 9 9 11 10 11 12 14 15 16 17 18 17 16 13 14 15 18 17 19 26 29 30 29 28 27 28 29 28 24 23 24 25 25 24 22 25 29 25 26 23
15 12 10 8 8 9 9 8 10 9 10 13 14 13 14 16 16 17 17 18 18 19 20 21 22 24 24 25 26 24 23 23 23 23 22 23 22 23 23 23 26 25 23 23
13 12 12 10 10 10 8 9 11 10 10 11 13 13 14 16 15 16 16 17 18 19 20 21 23 24 24 24 25 24 25 25 24 23 24 23 24 24 23 24 24 22 22 22
Wind_Direction
266 276 277 276 271 261 252 260 263 264 263 256 268 309 322 315 317 333 47 96 162 138 140 139 132 132 130 126 126 127 127 128 129 133 137 140 142 143 144 150 154 156 153 153
267 260 257 265 266 260 254 251 253 260 261 267 285 294 289 290 303 319 4 156 184 151 154 144 141 137 133 129 129 130 128 127 131 136 140 144 148 149 150 150 154 147 136 123
254 244 257 265 261 254 252 247 241 246 256 266 266 270 279 290 296 304 315 164 192 166 161 156 146 138 138 136 133 133 134 135 136 141 145 148 152 156 155 156 151 147 123 118
266 268 249 249 285 284 294 267 245 247 257 263 266 271 275 273 276 289 290 184 190 176 163 159 145 146 140 143 144 139 140 138 141 150 146 148 150 151 155 149 157 133 128 104
234 229 266 282 271 246 256 269 250 245 250 254 257 266 267 267 267 271 268 215 187 167 164 159 152 150 149 150 148 146 145 139 150 142 150 151 154 154 152 156 148 148 118 96
247 253 259 13 88 41 290 269 243 247 259 265 243 236 250 250 298 275 237 179 178 166 157 156 152 156 155 151 152 148 145 149 146 146 140 147 154 163 158 161 161 151 120 94
238 246 257 345 37 329 252 26 6 1 342 267 239 249 279 315 311 291 237 169 168 158 157 157 155 159 160 160 153 148 141 141 145 145 148 151 160 161 164 178 159 147 134 107
222 246 256 15 323 226 265 327 333 326 319 297 277 266 264 266 267 274 216 161 163 155 153 157 158 164 164 159 144 134 140 144 138 141 150 151 168 169 177 178 172 162 154 132
272 341 266 277 262 252 266 286 290 300 302 287 270 257 252 252 259 255 180 168 158 153 152 156 162 165 161 153 150 145 136 135 139 149 143 146 171 172 168 177 179 182 178 140
281 239 262 292 328 3 213 248 281 282 278 270 255 253 243 224 235 217 165 167 158 150 151 154 162 166 164 155 150 160 136 135 139 145 140 155 162 164 161 173 170 186 164 139
297 335 336 346 5 5 47 241 294 285 307 333 256 147 160 188 216 162 158 161 151 149 153 153 158 165 158 166 157 158 149 146 144 145 144 148 119 97 117 116 143 191 148 143
321 23 348 10 354 7 19 16 13 1 4 15 53 66 88 104 72 118 118 156 155 149 145 153 158 163 156 166 162 155 156 158 153 149 146 147 139 117 93 107 129 123 124 108
1 17 360 19 18 358 1 11 14 23 8 56 43 66 80 84 77 79 111 109 87 135 161 155 157 161 166 162 162 161 170 148 155 153 143 148 158 142 127 103 115 125 128 130
22 17 3 26 16 4 356 353 27 45 43 47 63 67 65 79 77 84 83 77 73 81 134 155 155 158 164 164 163 163 157 160 156 159 154 147 172 159 135 143 138 132 129 123
27 58 33 2 24 20 2 37 32 42 42 41 49 66 67 65 66 71 78 88 87 75 97 111 113 106 139 162 169 162 164 166 180 153 162 129 147 171 152 134 134 130 135 135
33 43 24 23 14 12 37 34 45 41 37 39 41 50 62 67 64 67 63 73 91 79 71 77 80 70 85 159 168 164 156 128 180 162 150 174 153 158 151 143 140 144 154 150
32 31 25 19 7 19 27 43 51 51 35 45 46 43 56 62 63 63 77 81 91 76 61 51 45 46 54 63 204 174 173 158 170 175 164 188 175 161 157 166 164 155 154 159
59 57 49 34 16 17 30 40 50 51 38 52 55 55 56 50 52 58 54 72 69 63 44 40 36 31 35 34 37 173 185 165 180 192 175 178 183 183 177 173 174 170 152 163
59 70 64 50 33 26 38 40 38 56 59 52 55 61 63 69 64 57 60 52 56 46 24 30 36 33 31 38 52 105 161 178 180 182 176 146 177 190 190 198 187 179 165 150
82 72 67 63 54 40 43 47 45 44 52 60 57 59 54 46 54 64 66 62 51 47 31 38 32 29 37 39 55 63 73 89 93 117 157 177 165 172 170 154 241 195 179 170
90 80 69 71 66 52 51 53 59 57 59 61 62 61 60 54 47 48 45 49 22 37 44 39 36 35 46 52 58 67 60 55 55 54 54 53 58 59 58 56 60 51 52 88
110 91 75 68 72 71 64 65 62 62 61 62 68 70 61 60 63 61 54 57 38 47 51 47 50 64 61 66 66 68 68 66 52 52 59 62 64 63 60 60 57 54 54 52
129 114 99 77 73 73 69 65 68 70 71 70 67 64 61 57 49 49 52 43 55 62 61 57 71 73 72 71 71 71 69 66 62 57 58 61 65 68 68 63 59 55 54 53
149 139 118 112 99 86 75 65 68 71 74 71 63 61 66 66 58 55 65 61 63 63 65 66 68 72 75 72 71 70 70 69 66 63 65 67 62 64 69 69 64 57 53 53
169 152 148 144 134 116 112 103 85 77 79 75 71 69 68 70 76 74 69 65 65 68 64 62 64 64 65 67 69 69 66 68 70 71 65 67 68 68 65 67 69 64 57 50
172 173 162 161 129 134 126 125 103 95 91 89 85 80 77 78 79 81 79 77 75 74 72 69 70 73 74 74 74 74 73 72 70 71 71 71 71 70 68 66 67 63 58 55
183 168 161 166 160 151 136 120 120 116 102 96 95 95 94 90 87 85 84 82 81 79 77 77 76 77 80 79 77 77 76 75 75 76 74 72 70 68 68 66 64 62 59 54